Location: Unnamed
(38.6326°N, 90.2727°W)
Time: 13:51:51
(UTC-06:00)

ISS - Pass Details

Date: 25 April 2020
Orbit: 417 x 422 km, 51.6° (Epoch: 26 February)

Event Time Altitude Azimuth Distance (km) Brightness Sun altitude
Exits shadow 04:31:38 13° 157° (SSE) 1,310 -1.4 -18.1°
Maximum altitude 04:32:59 16° 130° (SE) 1,181 -1.3 -17.9°
Drops below altitude 10° 04:35:08 10° 90° (E) 1,502 -0.1 -17.6°
Sets 04:37:48 0° 67° (ENE) 2,375 1.7 -17.1°
